Location: Unspecified
(48.8656°N, 0.0000°E)
Time: 12:37:18
(UTC+00:00)

Transit 2A Rocket - Pass Details

Date: 17 June 2019
Orbit: 588 x 915 km, 66.7° (Epoch: 20 July)

Event Time Altitude Azimuth Distance (km) Brightness Sun altitude
Rises 10:36:22 0° 184° (S) 3,529 8.7 59.6°
Reaches altitude 10° 10:39:05 10° 176° (S) 2,598 8.3 59.8°
Maximum altitude 10:44:31 35° 113° (ESE) 1,434 7.6 60.4°
Drops below altitude 10° 10:49:51 10° 50° (NE) 2,552 7.8 60.9°
Sets 10:52:29 0° 42° (NE) 3,459 8.3 61.2°
